Вернуться в каталог

SL-12 DEB

LostHEO
NORAD 26804·DEBRIS·🇷🇺 Russia

Запущен Dec 24, 1985 с Baikonur Cosmodrome

Loading…

Ближайшие Пролёты (ближайшие 24 часа)

TLE

УстаревшееSource: Space-Track

Эпоха: Aug 27, 2003, 11:49 UTC

1 26804U 85118AB  03239.49271407 -.00000041 +00000-0 +10000-3 0  9994
2 26804 064.6097 009.7588 4488788 006.5045 356.6756 05.65955095085659

Отслеживайте SL-12 DEB в реальном времени с AllMySat

Download on the App Store